Content
SEND FEEDBACK

Daily
Averages
Monthly
Summary
United States of America

CHELSEA, MASSACHUSETTS


Home > North America > United States > Massachusetts
Elevation: 30 feet     Latitude: 42 24N     Longitude: 071 06W

WEATHER
 
SELECT A DAY
Number of Records: 202,798;   Date Range: 1/1/95 - 8/14/14
 
SHARE

PRINT THIS DATA

[ ← Previous Day ]
WEATHER ALMANAC - OCTOBER 25, 2013
[ Next Day → ]
[ °C ]   °F
Weather ElementAverageHighLow
Temperature45.1 °F50 °F (2:54 pm)39 °F (5:54 am)
Dewpoint26.7 °F32 °F (7:54 am)23 °F (2:54 pm)
Humidity49.6 %67 % (5:54 am)35 % (2:54 pm)
Barometer30.03 in30.16 in (10:54 pm)29.92 in (1:54 am)
Wind Speed10.5 mph15 mph (4:54 pm)
Wind Gust19.6 mph (1:54 pm)
Weather ElementAverage
Visibility10 mi
Wind DirectionWNW (281.7 °)

Weather ElementTotal
Precipitation---
Heating Degree Days20.5 (Base 65)
Averaged from 23 records on October 25, 2013
WEATHER CONDITIONS BREAKOUT
WIND DIRECTION BREAKOUT
WEATHER BY HOUR - OCTOBER 25, 2013
[ °C ]   °F
Local TimeTemperatureDewpointHumidityBarometerVisibilityWind DirectionWind SpeedGust SpeedPrecipitationEventsConditions
1:54 AM44.1 °F28.0 °F53 %29.92 in10.0 miWSW (250°)10.4 mphClear
2:54 AM43.0 °F28.0 °F56 %29.93 in10.0 miWSW (250°)9.2 mphClear
3:54 AM43.0 °F28.9 °F58 %29.93 in10.0 miWest (260°)9.2 mphClear
4:54 AM41.0 °F28.9 °F62 %29.95 in10.0 miWest (270°)5.8 mphClear
5:54 AM39.0 °F28.9 °F67 %29.97 in10.0 miWSW (240°)8.1 mphClear
6:54 AM41.0 °F30.9 °F67 %29.99 in10.0 miWest (270°)9.2 mphClear
7:54 AM42.1 °F32.0 °F67 %30.02 in10.0 miWest (260°)9.2 mph16.1 mphPartly Cloudy
8:54 AM43.0 °F32.0 °F65 %30.03 in10.0 miWNW (300°)10.4 mphPartly Cloudy
9:54 AM46.9 °F30.9 °F54 %30.03 in10.0 miWNW (290°)13.8 mph18.4 mphScattered Clouds
10:54 AM46.9 °F28.9 °F50 %30.03 in10.0 miWest (280°)11.5 mphScattered Clouds
11:54 AM46.0 °F28.9 °F51 %30.04 in10.0 miWNW (300°)12.7 mphMostly Cloudy
12:54 PM48.9 °F25.0 °F39 %30.01 in10.0 miWest (280°)13.8 mphMostly Cloudy
1:54 PM48.0 °F25.0 °F41 %30.01 in10.0 miNW (310°)13.8 mph19.6 mphMostly Cloudy
2:54 PM50.0 °F23.0 °F35 %30.02 in10.0 miNW (310°)13.8 mphOvercast
3:54 PM48.9 °F23.0 °F36 %30.03 in10.0 miWest (280°)10.4 mphMostly Cloudy
4:54 PM50.0 °F23.0 °F35 %30.04 in10.0 miWNW (290°)15.0 mphPartly Cloudy
5:54 PM48.0 °F23.0 °F37 %30.06 in10.0 miWNW (300°)12.7 mphScattered Clouds
6:54 PM46.9 °F24.1 °F41 %30.08 in10.0 miWNW (290°)9.2 mphPartly Cloudy
7:54 PM46.0 °F23.0 °F40 %30.11 in10.0 miNW (320°)12.7 mph19.6 mphPartly Cloudy
8:54 PM45.0 °F23.0 °F42 %30.13 in10.0 miNW (310°)9.2 mphClear
9:54 PM43.0 °F24.1 °F47 %30.15 in10.0 miWest (280°)5.8 mphClear
10:54 PM44.1 °F25.0 °F47 %30.16 in10.0 miWest (280°)8.1 mphClear
11:54 PM43.0 °F26.1 °F51 %30.16 in10.0 miWest (260°)8.1 mphClear
Hourly data recorded from KBOS, located miles away from Chelsea, Massachusetts







STORIES FROM OUR PARTNERS